Hlavní strana
METAR-TAF:

METAR-TAF

Letiště :

Goldsboro, Severní Karolína, Spojené státy americké

zeměpisná šířka: 35-27-38N, zeměpisná délka: 077-57-54W, výška: 40 m

Aktuální stav počasí

Zpráva byla vytvořena před 24 minutami, v 08:55 UTC
Jihozápadní vítr 7 kt
Teplota 22°C
Vlhkost vzduchu 100%
Tlak 1016 hPa
Viditelnost: 16.1 km
Jasno

METAR: KGWW 190855Z AUTO 22007KT 10SM CLR 22/22 A3000 RMK AO2 T02200215

Čas: 05:19 (09:19 UTC)


TAF: chybějící

Stav a předpovědi počasí z více než 4 000 letišť (zprávy METAR a TAF).

Červené a žluté tečky na mapě představují dostupné meteorologické stanice.

Když kurzor umístíte na tečku, zobrazí se název stanice.

Pak kliknutím zobrazíte stav a předpověď počasí.

Chcete-li změnit mapu, kliknutím na zelené tlačítko se znaménkem +mapu přiblížíte, kliknutím na zelené tlačítko se znaménkem – mapu oddálíte a kliknutím na zelené šipky přejdete na sousední mapy.


METAR-TAF: